"Pseudo-MPEC" for A10Yj4d

Created 2023 Nov 21 21:22:02 UT using Find_Orb

Click here for an explanation of pseudo-MPECs

 
 Astrometry: 
     A10Yj4d* C2023 11 19q1w+Kh@*($2KuWeQQ=bM*Astrometry/mbThK0!u[q,XW2Gw)VNTW68
     A10Yj4d  C2023 11 19+_t]j7y=B.0*=R/M-*.Yk@6WggMqwVK)redacted;;yf,7eI3N4qW68
     A10Yj4d  C2023 11 19E@rNdZ-/wfh:9py1eq/*uB2/9WO?)W]cm;Y,4syPC=OU[njR!fedW68
     A10Yj4d  C2023 11 19%vnxK\CD)a_bGMclick6FWYd`hyTIDaJhere0Lij7h(for$L`agJW68
     A10Yj4d  C2023 11 195M:[+MykpS?waC-g2QC#tL@xR:?TexplanationTXj9_C*Uv^tsyW68

Station data:
(W68) ATLAS Chile, Rio Hurtado  (S30.471010 W70.764980)  Chile.  Observers L.
   Denneau, R. Siverd, J. Tonry, H. Weiland. Measurers L. Denneau, N.
   Erasmus, A. Fitzsimmons, A. Lawrence, J. Robinson, R. Siverd, J. Tonry, H.
   Weiland. 0.5-m reflector + CCD.

Orbital elements:  A10Yj4d
   Perigee 2023 Nov 19.44521 +/- 0.0285 TT = 10:41:06 (JD 2460267.94521)
Epoch 2023 Nov 19.0 TT = JDT 2460267.5                           AutoNEOCP
q154864.332 +/- 18572               (J2000 equator)
H   30.61 G 0.15                    Peri.   43.36321 +/- 3.6
                                    Node    33.18955 +/- 0.050
e   3.4498472 +/- 1.41              Incl.   31.03596 +/- 0.47
From 5 observations 2023 Nov. 19 (43.2 min); mean residual 0".74
Residuals in arcseconds: 
231119 W68  .59-  .48-    231119 W68  .85+  .69+    231119 W68  .76+  .59+    
231119 W68  .26+  .21+    231119 W68  1.3-  1.0-    

Ephemerides (geocentric):
Date (UTC) HH   RA             Dec           delta  r     elong  mag " sig PA
---- --------  ------------   ------------  ------ ------ -----  --- --------
2023 11 21 21  11 15 37.615   +22 46 51.34  614267 .98707  78.7 22.3 470' 114
2023 11 21 22  11 16 45.867   +22 40 34.25  623716 .98703  78.5 22.4 473' 114
2023 11 21 23  11 17 51.987   +22 34 26.63  633167 .98699  78.3 22.4 476' 114
2023 11 22 00  11 18 56.073   +22 28 28.13  642619 .98695  78.0 22.5 479' 114
2023 11 22 01  11 19 58.216   +22 22 38.46  652072 .98692  77.8 22.5 482' 114
2023 11 22 02  11 20 58.505   +22 16 57.28  661526 .98688  77.6 22.5 485' 114
2023 11 22 03  11 21 57.021   +22 11 24.33  670980 .98684  77.4 22.6 487' 114
2023 11 22 04  11 22 53.841   +22 05 59.31  680435 .98680  77.2 22.6 490' 114
2023 11 22 05  11 23 49.040   +22 00 41.95  689891 .98677  77.0 22.7 492' 115
2023 11 22 06  11 24 42.684   +21 55 31.99  699346 .98673  76.9 22.7 495' 115
2023 11 22 07  11 25 34.840   +21 50 29.19  708801 .98669  76.7 22.7 497' 115
2023 11 22 08  11 26 25.569   +21 45 33.31  718256 .98666  76.5 22.8 500' 115
2023 11 22 09  11 27 14.929   +21 40 44.11  727711 .98662  76.3 22.8 502' 115
2023 11 22 10  11 28 02.976   +21 36 01.39  737165 .98658  76.2 22.9 504' 115
2023 11 22 11  11 28 49.760   +21 31 24.92  746619 .98655  76.0 22.9 507' 115
2023 11 22 12  11 29 35.333   +21 26 54.51  756072 .98651  75.9 22.9 509' 115
2023 11 22 13  11 30 19.741   +21 22 29.97  765525 .98647  75.7 23.0 511' 115
2023 11 22 14  11 31 03.028   +21 18 11.10  774977 .98644  75.6 23.0 513' 115
2023 11 22 15  11 31 45.236   +21 13 57.73  784428 .98640  75.4 23.0 515' 115
2023 11 22 16  11 32 26.407   +21 09 49.68  793878 .98637  75.3 23.1 517' 115
2023 11 22 17  11 33 06.578   +21 05 46.79  803326 .98633  75.2 23.1 519' 115
2023 11 22 18  11 33 45.786   +21 01 48.91  812774 .98629  75.1 23.1 521' 115
2023 11 22 19  11 34 24.065   +20 57 55.88  822221 .98626  74.9 23.2 523' 115
2023 11 22 20  11 35 01.449   +20 54 07.54  831667 .98622  74.8 23.2 525' 115
2023 11 22 21  11 35 37.969   +20 50 23.77  841111 .98619  74.7 23.2 527' 115
2023 11 22 22  11 36 13.655   +20 46 44.43  850555 .98615  74.6 23.2 529' 115
2023 11 22 23  11 36 48.536   +20 43 09.37  859997 .98612  74.5 23.3 530' 115
2023 11 23 00  11 37 22.639   +20 39 38.49  869437 .98608  74.4 23.3 532' 115
2023 11 23 01  11 37 55.990   +20 36 11.66  878877 .98605  74.3 23.3 534' 115
2023 11 23 02  11 38 28.615   +20 32 48.75  888315 .98601  74.2 23.4 536' 116
2023 11 23 03  11 39 00.537   +20 29 29.67  897751 .98598  74.1 23.4 537' 116
2023 11 23 04  11 39 31.780   +20 26 14.29  907186 .98594  74.0 23.4 539' 116
2023 11 23 05  11 40 02.364   +20 23 02.53  916620 .98591  73.9 23.4 541' 116
2023 11 23 06  11 40 32.312   +20 19 54.26  926052 .98587  73.8 23.5 542' 116
2023 11 23 07  11 41 01.643   +20 16 49.41  935483 .98584  73.7 23.5 544' 116
2023 11 23 08  11 41 30.377   +20 13 47.87  944912 .98580  73.6 23.5 545' 116
2023 11 23 09  11 41 58.532   +20 10 49.55  954340 .98577  73.6 23.6 547' 116
2023 11 23 10  11 42 26.126   +20 07 54.37  963766 .98574  73.5 23.6 548' 116
2023 11 23 11  11 42 53.175   +20 05 02.25  973191 .98570  73.4 23.6 550' 116
2023 11 23 12  11 43 19.697   +20 02 13.09  982614 .98567  73.3 23.6 551' 116
2023 11 23 13  11 43 45.707   +19 59 26.83  992035 .98563  73.3 23.7 553' 116
2023 11 23 14  11 44 11.219   +19 56 43.39  .00669 .98560  73.2 23.7 554' 116
2023 11 23 15  11 44 36.250   +19 54 02.69  .00676 .98557  73.1 23.7 555' 116
2023 11 23 16  11 45 00.811   +19 51 24.67  .00682 .98553  73.1 23.7 557' 116
2023 11 23 17  11 45 24.918   +19 48 49.25  .00688 .98550  73.0 23.7 558' 116
2023 11 23 18  11 45 48.582   +19 46 16.37  .00695 .98547  72.9 23.8 559' 116
2023 11 23 19  11 46 11.817   +19 43 45.97  .00701 .98543  72.9 23.8 561' 116
2023 11 23 20  11 46 34.634   +19 41 17.97  .00707 .98540  72.8 23.8 562' 116